This demonstration page uses our WeatherBlox Daily Observations layout. Learn more.

Left ArrowRight Arrow

39.08367, -84.50855

Hourly Observations for February 3, 2016

Temp ( °F °C ) Dew Point ( °F °C ) Humidity (%) Winds ( mph kmh ) Pressure ( in mb ) Visibility ( mi km ) Precip ( " mm )
12:53 am 00:53 Cloudy with Light Rain 60 15.6 57 13.9 90 90 S 13 20 29.59 1002 10 16 0.10 2.54
1:20 am 01:20 Cloudy with Heavy Rain 59 15 57 14 94 94 SW 15 24 29.62 1003 1 1 N/A
1:26 am 01:26 Cloudy with Heavy Rain 59 15 58 14.4 96 96 SSW 13 20 29.62 1003 1 2 0.44 11.18
1:33 am 01:33 Cloudy with Heavy Rain 59 15 58 14.4 96 96 S 13 20 29.62 1003 3 5 0.48 12.19
1:53 am 01:53 Cloudy with Heavy Rain 59 15 59 15 100 100 SSW 12 19 29.62 1003 4 6 0.57 14.48
2:53 am 02:53 Cloudy with Light Rain 58 14.4 56 13.3 93 93 SSE 12 19 29.59 1002 10 16 0.12 3.05
3:53 am 03:53 Partly Cloudy 59 15 55 12.8 87 87 SSW 16 26 29.60 1002 10 16 0.01 0.25
4:53 am 04:53 Mostly Cloudy 59 15 57 13.9 93 93 SSW 13 20 29.61 1003 10 16 N/A
5:16 am 05:16 Partly Cloudy 58 14.4 57 13.9 97 97 S 10 17 29.62 1003 10 16 N/A
5:53 am 05:53 Mostly Clear 58 14.4 56 13.3 93 93 SSW 14 22 29.64 1004 10 16 N/A
6:53 am 06:53 Mostly Cloudy 58 14.4 55 12.8 90 90 SSW 14 22 29.66 1004 10 16 N/A
7:53 am 07:53 Partly Cloudy 57 13.9 54 12.2 90 90 SSW 12 19 29.69 1005 10 16 N/A
8:53 am 08:53 Mostly Sunny 55 12.8 45 7.2 69 69 SSW 13 20 29.70 1006 10 16 N/A
9:53 am 09:53 Sunny 57 13.9 41 5 55 55 SW 17 28 29.73 1007 10 16 N/A
10:53 am 10:53 Mostly Sunny 58 14.4 38 3.3 48 48 SSW 20 31 29.73 1007 10 16 N/A
11:53 am 11:53 Mostly Sunny 58 14.4 35 1.7 42 42 SSW 25 41 29.74 1007 10 16 N/A
12:53 pm 12:53 Sunny 59 15 33 0.6 38 38 SW 22 35 29.73 1007 10 16 N/A
1:53 pm 13:53 Mostly Sunny 58 14.4 33 0.6 39 39 SW 21 33 29.75 1007 10 16 N/A
2:53 pm 14:53 Sunny 58 14.4 32 undefined 38 38 SW 18 30 29.76 1008 10 16 N/A
3:53 pm 15:53 Mostly Sunny 54 12.2 36 2.2 51 51 W 15 24 29.80 1009 10 16 N/A
4:53 pm 16:53 Mostly Sunny 51 10.6 31 -0.6 46 46 W 16 26 29.85 1011 10 16 N/A
5:53 pm 17:53 Mostly Sunny 46 7.8 31 -0.6 56 56 W 16 26 29.91 1013 10 16 N/A
6:53 pm 18:53 Partly Cloudy 43 6.1 29 -1.7 58 58 W 17 28 29.96 1015 10 16 N/A
7:53 pm 19:53 Partly Cloudy 41 5 28 -2.2 60 60 WSW 14 22 29.99 1016 10 16 N/A
8:53 pm 20:53 Mostly Cloudy 41 5 29 -1.7 62 62 W 20 31 30.02 1017 10 16 N/A
9:53 pm 21:53 Cloudy 40 4.4 28 -2.2 63 63 W 20 31 30.04 1017 10 16 N/A
10:53 pm 22:53 Cloudy 40 4.4 28 -2.2 63 63 W 15 24 30.06 1018 10 16 N/A
11:53 pm 23:53 Cloudy 38 3.3 28 -2.2 68 68 W 16 26 30.08 1019 10 16 N/A

Powered by AerisWeather